GW0821 Weather Reports


time (UTC)temp
F
wind
direction
speed
knots
gust
knots
rain 1hr
in
rain 24hr
in
rain mn
in
humidity
%
barometer
mb
20260507213048 53 0 0.0 0.9 0.00 0.00 0.00 87 1012.9
20260507211547 53 0 0.0 0.0 0.00 0.00 0.00 86 1013.0
20260507210051 53 196 0.0 2.6 0.00 0.00 0.00 85 1012.8
20260507204553 54 0 0.0 1.7 0.00 0.00 0.00 86 1012.7
20260507203045 54 0 0.0 0.9 0.00 0.00 0.00 86 1012.7
20260507201542 55 0 0.0 2.6 0.00 0.00 0.00 85 1012.4
20260507200049 56 0 0.0 0.0 0.00 0.00 0.00 84 1012.2
20260507194544 56 0 0.0 0.0 0.00 0.00 0.00 83 1012.0
20260507193051 57 0 0.0 0.9 0.00 0.00 0.00 83 1011.8
20260507191550 57 0 0.9 3.5 0.00 0.00 0.00 82 1011.5
20260507190040 58 208 0.9 6.1 0.00 0.00 0.00 80 1011.3
20260507184550 59 149 1.7 5.2 0.00 0.00 0.00 79 1011.2
20260507183051 59 185 0.9 4.3 0.00 0.00 0.00 77 1010.9
20260507181559 60 222 1.7 5.2 0.00 0.00 0.00 76 1010.9
20260507180043 61 180 1.7 5.2 0.00 0.00 0.00 74 1010.7
20260507174547 62 275 1.7 7.0 0.00 0.00 0.00 73 1010.6
20260507173048 63 239 3.5 7.8 0.00 0.00 0.00 70 1010.4
20260507171553 63 234 1.7 7.0 0.00 0.00 0.00 69 1010.2
20260507170050 63 220 1.7 10.4 0.00 0.00 0.00 69 1010.2
20260507164542 63 237 2.6 8.7 0.00 0.00 0.00 67 1010.2
20260507163043 64 144 4.3 8.7 0.00 0.00 0.00 66 1010.2
20260507161541 64 212 3.5 13.9 0.00 0.00 0.00 66 1010.4
20260507160040 64 218 3.5 11.3 0.00 0.00 0.00 64 1010.3
20260507154549 66 212 2.6 8.7 0.00 0.00 0.00 63 1010.3
20260507153052 66 174 2.6 7.0 0.00 0.00 0.00 61 1010.2
20260507151543 65 163 3.5 7.0 0.00 0.00 0.00 62 1010.2
20260507150043 65 202 3.5 9.6 0.00 0.00 0.00 60 1010.4
20260507144548 65 208 4.3 9.6 0.00 0.00 0.00 61 1010.3
20260507143048 66 138 3.5 11.3 0.00 0.00 0.00 60 1010.4
20260507141544 66 190 2.6 7.8 0.00 0.00 0.00 60 1010.6
20260507140049 66 248 2.6 9.6 0.00 0.00 0.00 60 1010.8
20260507134544 65 260 4.3 10.4 0.00 0.00 0.00 61 1011.2
20260507133041 65 239 4.3 10.4 0.00 0.00 0.00 63 1011.1
20260507131553 64 222 2.6 7.8 0.00 0.00 0.00 66 1011.4
20260507130043 63 155 6.1 12.2 0.00 0.00 0.00 68 1011.5
20260507124552 64 212 5.2 10.4 0.00 0.00 0.00 67 1011.4
20260507123043 65 144 3.5 12.2 0.00 0.00 0.00 65 1011.7
20260507121543 67 168 4.3 10.4 0.00 0.00 0.00 62 1011.4
20260507120043 66 181 4.3 10.4 0.00 0.00 0.00 63 1011.5
20260507114543 67 208 3.5 9.6 0.00 0.00 0.00 60 1011.4
20260507113038 65 204 2.6 7.8 0.00 0.00 0.00 61 1011.6
20260507111544 66 98 2.6 8.7 0.00 0.00 0.00 61 1011.8
20260507110043 65 157 3.5 9.6 0.00 0.00 0.00 61 1011.9
20260507104549 65 155 4.3 10.4 0.00 0.00 0.00 61 1012.0
20260507103047 65 128 2.6 8.7 0.00 0.00 0.00 62 1012.0
20260507101546 65 172 2.6 6.1 0.00 0.00 0.00 62 1012.1
20260507100044 64 229 1.7 6.1 0.00 0.00 0.00 63 1012.2
20260507094544 64 174 1.7 9.6 0.00 0.00 0.00 63 1012.6
20260507093049 63 206 0.9 4.3 0.00 0.00 0.00 66 1012.5
20260507091549 63 201 2.6 4.3 0.00 0.00 0.00 67 1012.5
20260507090047 62 0 1.7 5.2 0.00 0.00 0.00 69 1012.6
20260507084546 62 205 1.7 6.1 0.00 0.00 0.00 71 1012.5
20260507083044 61 265 0.9 7.0 0.00 0.00 0.00 71 1012.6
20260507081548 61 172 1.7 5.2 0.00 0.00 0.00 73 1012.8
20260507080051 60 185 1.7 7.8 0.00 0.00 0.00 75 1012.7
20260507074557 59 174 1.7 5.2 0.00 0.00 0.00 76 1012.9
20260507073043 58 0 0.0 0.0 0.00 0.00 0.00 75 1013.0
20260507071543 57 0 0.0 0.0 0.00 0.00 0.00 78 1012.8
20260507070043 55 0 0.0 0.0 0.00 0.00 0.00 82 1012.7
20260507064540 52 0 0.0 0.9 0.00 0.00 0.00 84 1012.6
20260507063045 50 0 0.0 0.9 0.00 0.00 0.00 88 1012.5
20260507061544 48 0 0.0 0.0 0.00 0.00 0.00 95 1012.3
20260507060045 44 0 0.0 0.0 0.00 0.00 0.00 95 1012.6
20260507054604 44 0 0.0 0.9 0.00 0.00 0.00 94 1012.6
20260507053052 44 0 0.0 1.7 0.00 0.00 0.00 94 1012.3
20260507051542 44 0 0.0 0.0 0.00 0.00 0.00 94 1012.2
20260507050054 44 0 0.0 0.0 0.00 0.00 0.00 94 1012.2
20260507044549 44 0 0.0 0.0 0.00 0.00 0.00 94 1012.2
20260507043046 44 0 0.0 0.9 0.00 0.00 0.00 94 1012.1
20260507041548 45 0 0.0 0.0 0.00 0.00 0.00 94 1012.1
20260507040044 45 0 0.0 0.0 0.00 0.00 0.00 94 1012.1
20260507034555 45 0 0.0 0.0 0.00 0.00 0.00 94 1012.1
20260507033053 46 0 0.0 0.0 0.00 0.00 0.00 93 1012.2
20260507031602 46 0 0.0 0.0 0.00 0.00 0.00 93 1012.2
20260507030051 47 0 0.0 0.0 0.00 0.00 0.00 93 1012.2
20260507024544 47 0 0.0 0.9 0.00 0.00 0.00 93 1012.2
20260507023040 48 0 0.0 0.0 0.00 0.00 0.00 93 1012.2
20260507021539 48 0 0.0 1.7 0.00 0.00 0.00 93 1012.3
20260507020039 49 0 0.0 0.0 0.00 0.00 0.00 92 1012.2
20260507014550 49 0 0.0 0.0 0.00 0.00 0.00 92 1012.3
20260507013045 50 0 0.0 0.0 0.00 0.00 0.00 92 1012.2
20260507011544 50 0 0.0 0.0 0.00 0.00 0.00 91 1012.2
20260507010044 51 228 0.0 0.9 0.00 0.00 0.00 91 1012.2
20260507004544 51 0 0.0 0.0 0.00 0.00 0.00 90 1012.3
20260507003051 51 0 0.0 0.9 0.00 0.00 0.00 90 1012.3
20260507001551 51 0 0.0 0.9 0.00 0.00 0.00 90 1012.4
20260507000043 51 0 0.0 0.9 0.00 0.00 0.00 89 1012.5
20260506234550 52 0 0.0 0.9 0.00 0.00 0.00 89 1012.5
20260506233043 52 0 0.0 0.0 0.00 0.00 0.00 88 1012.6
20260506231550 52 0 0.0 0.0 0.00 0.00 0.00 89 1012.6
20260506230046 52 0 0.0 0.0 0.00 0.00 0.00 89 1012.6
20260506224546 52 0 0.0 0.9 0.00 0.00 0.00 89 1012.6
20260506223040 52 0 0.0 0.9 0.00 0.00 0.00 89 1012.6
20260506221550 52 250 0.0 0.9 0.00 0.00 0.00 88 1012.7
20260506220056 52 0 0.0 0.9 0.00 0.00 0.00 88 1012.6
20260506214544 53 0 0.0 0.9 0.00 0.00 0.00 88 1012.5